Observations for Trim Market St
| Time | AQI | Temp °C | Hum % | Pres Pa | CO μg/m³ | H₂S μg/m³ | NO μg/m³ | NO₂ μg/m³ | O₃ μg/m³ | SO₂ μg/m³ | PM1 μg/m³ | PM2.5 μg/m³ | PM10 μg/m³ |
|---|---|---|---|---|---|---|---|---|---|---|---|---|---|
| Thursday 27 August 2026 | |||||||||||||
| 01:45 | 3 | 16.2 | 83 | 2,147,483,647 | 0.29 | 0 | 2.16 | 6.11 | 45.98 | 0 | 14.96 | 17.39 | 27.29 |
| 01:43 | 3 | 16.2 | 83 | 2,147,483,647 | 0.3 | 0 | 2.16 | 6.56 | 44.2 | 0 | 16.39 | 19.73 | 29.49 |
| 01:42 | 3 | 16.2 | 83 | 2,147,483,647 | 0.3 | 0 | 2.16 | 6.37 | 43.54 | 0 | 15.68 | 18.33 | 29.49 |
| 01:36 | 3 | 16.2 | 83 | 2,147,483,647 | 0.3 | 0 | 2.17 | 7.44 | 44.21 | 0 | 16.39 | 19.27 | 29.51 |
| 01:32 | 3 | 16.3 | 83 | 2,147,483,647 | 0.31 | 0 | 2.15 | 6.44 | 41.94 | 0 | 17.81 | 20.22 | 30.64 |
| 01:30 | 3 | 16.3 | 83 | 2,147,483,647 | 0.31 | 0 | 2.15 | 6.25 | 43.67 | 0 | 16.39 | 18.35 | 29.54 |
| 01:29 | 3 | 16.3 | 83 | 2,147,483,647 | 0.3 | 0 | 2.15 | 6.19 | 39.92 | 0 | 16.39 | 19.75 | 29.54 |
| 01:23 | 3 | 16.3 | 83 | 2,147,483,647 | 0.33 | 0 | 2.26 | 8.5 | 41.34 | 0 | 15.68 | 18.82 | 30.11 |
| 01:22 | 3 | 16.3 | 83 | 2,147,483,647 | 0.38 | 0 | 2.26 | 10.97 | 39.31 | 0 | 17.1 | 21.16 | 32.32 |
| 01:21 | 3 | 16.3 | 83 | 2,147,483,647 | 0.41 | 0 | 2.24 | 10.07 | 35.24 | 0 | 15.68 | 16.02 | 22.95 |
| 01:20 | 3 | 16.3 | 83 | 2,147,483,647 | 0.3 | 0 | 2.2 | 5.78 | 42.48 | 0 | 14.96 | 18.82 | 28.46 |
| 01:19 | 3 | 16.3 | 83 | 2,147,483,647 | 0.3 | 0 | 2.18 | 6.5 | 46.69 | 0 | 16.39 | 19.29 | 29.01 |
| 01:18 | 3 | 16.3 | 83 | 2,147,483,647 | 0.29 | 0 | 2.18 | 6.83 | 45.11 | 0 | 16.39 | 18.82 | 30.11 |
| 01:17 | 3 | 16.3 | 83 | 2,147,483,647 | 0.31 | 0 | 2.16 | 6.32 | 43.81 | 0 | 14.96 | 15.56 | 22.97 |
| 01:16 | 3 | 16.3 | 83 | 2,147,483,647 | 0.3 | 0 | 2.15 | 5.69 | 41.53 | 0 | 15.68 | 18.83 | 28.48 |
| 01:15 | 3 | 16.3 | 83 | 2,147,483,647 | 0.3 | 0 | 2.14 | 6.89 | 38.48 | 0 | 14.96 | 18.83 | 29.03 |
| 01:14 | 3 | 16.3 | 83 | 2,147,483,647 | 0.3 | 0 | 2.14 | 6.32 | 41.26 | 0 | 15.68 | 17.9 | 28.48 |
| 01:13 | 3 | 16.3 | 83 | 2,147,483,647 | 0.31 | 0 | 2.15 | 6.37 | 42.1 | 0 | 14.96 | 19.3 | 29.03 |
| 01:12 | 3 | 16.3 | 83 | 2,147,483,647 | 0.35 | 0 | 2.14 | 7.23 | 44.38 | 0 | 14.96 | 18.38 | 27.95 |
| 01:11 | 3 | 16.3 | 83 | 2,147,483,647 | 0.42 | 0 | 2.14 | 7.35 | 47.87 | 0 | 15.68 | 17.9 | 26.83 |